Location: Les Salelles
(44.4192°N, 4.1044°E)
Time: 10:11:43
(UTC+00:00)

CZ-4B R/B - Pass Details

Date: 20 January 2021
Orbit: 387 x 458 km, 97.6° (Epoch: 01 March)

Event Time Altitude Azimuth Distance (km) Brightness Sun altitude
Exits shadow 18:09:35 - 4° (N) 2,197 4.7 -16.4°
Reaches altitude 10° 18:11:03 10° 359° (N) 1,586 4.0 -16.6°
Maximum altitude 18:14:17 42° 288° (WNW) 641 2.6 -17.2°
Drops below altitude 10° 18:17:25 10° 216° (SW) 1,538 4.7 -17.8°
Sets 18:19:27 0° 209° (SSW) 2,387 5.7 -18.1°
